Weather History for K3T5 - December, 2013

Change the Weather History Date:

Sunday, December 1, 2013

  Actual Average (KAUS) Record (KAUS)
Temperature  
Mean Temperature 66 °F 53 °F  
Max Temperature 76 °F 66 °F 84 °F (2012)
Min Temperature 55 °F 40 °F 23 °F (2010)
Degree Days  
Heating Degree Days 0 13  
Month to date heating degree days 13  
Since 1 July heating degree days 298  
Cooling Degree Days 0 1  
Month to date cooling degree days 1  
Year to date cooling degree days 2742  
Growing Degree Days 16 (Base 50)    
Moisture  
Dew Point 42 °F    
Average Humidity 54    
Maximum Humidity 78    
Minimum Humidity 4    
Precipitation  
Precipitation 0.00 in 0.09 in 4.81 in (1953)
Month to date precipitation 0.09  
Year to date precipitation 32.99  
Snow  
Snow 0.00 in - - ()
Month to date snowfall  
Since 1 July snowfall  
Snow Depth -    
Sea Level Pressure  
Sea Level Pressure 30.09 in    
Wind  
Wind Speed 2 mph (SSW)    
Max Wind Speed 12 mph    
Max Gust Speed -    
Visibility 10 miles    
Events      
T = Trace of Precipitation, MM = Missing Value Source: NWS Daily Summary

Daily Weather History Graph

Daily Weather History Graph

Search for Another Location

Airport or City:

Trip Planner

Search our weather history database for the weather conditions in past years. The results will help you decide how hot, cold, wet, or windy it might be!

Date:

Astronomy

Dec. 01, 2013 Rise Set
Actual Time 7:06 AM CST 5:27 PM CST
Civil Twilight 6:40 AM CST 5:53 PM CST
Nautical Twilight 6:10 AM CST 6:23 PM CST
Astronomical Twilight 5:41 AM CST 6:52 PM CST
Moon 5:31 AM CST 4:34 PM CST
Length of Visible Light 11h 13m
Length of Day
10h 21m
Waning Crescent, 2% of the Moon is Illuminated
Dec 1
Waning Crescent
Dec 2
New
Dec 9
First Quarter
Dec 17
Full
Dec 25
Last Quarter

Hourly Weather History & Observations

Time (CST) Temp. Dew Point Humidity Pressure Visibility Wind Dir Wind Speed Gust Speed Precip Events Conditions
12:15 AM 56.3 °F 49.1 °F 77% 30.20 in 10.0 mi Calm Calm - N/A   Clear
12:35 AM 55.9 °F 49.3 °F 78% 30.19 in 10.0 mi South 3.5 mph - N/A   Scattered Clouds
12:55 AM 57.0 °F 50.0 °F 77% 30.19 in 10.0 mi Calm Calm - N/A   Overcast
1:15 AM 57.4 °F 50.0 °F 76% 30.19 in 10.0 mi Calm Calm - N/A   Overcast
1:35 AM 57.7 °F 50.0 °F 75% 30.18 in 10.0 mi SSE 3.5 mph - N/A   Overcast
1:55 AM 58.5 °F 50.2 °F 74% 30.18 in 10.0 mi Calm Calm - N/A   Overcast
2:15 AM 58.5 °F 50.0 °F 73% 30.19 in 10.0 mi Calm Calm - N/A   Overcast
2:35 AM 58.5 °F 49.6 °F 72% 30.19 in 10.0 mi Calm Calm - N/A   Overcast
2:55 AM 58.5 °F 50.0 °F 73% 30.19 in 10.0 mi Calm Calm - N/A   Overcast
3:15 AM 58.1 °F 49.3 °F 72% 30.18 in 10.0 mi Calm Calm - N/A   Overcast
3:35 AM 57.6 °F 48.7 °F 72% 30.18 in 10.0 mi Calm Calm - N/A   Overcast
3:55 AM 57.4 °F 48.4 °F 72% 30.18 in 10.0 mi Calm Calm - N/A   Overcast
4:15 AM 57.2 °F 48.2 °F 72% 30.17 in 10.0 mi Calm Calm - N/A   Overcast
4:35 AM 57.2 °F 48.2 °F 72% 30.17 in 10.0 mi Calm Calm - N/A   Overcast
4:55 AM 57.2 °F 47.8 °F 71% 30.16 in 10.0 mi Calm Calm - N/A   Overcast
5:15 AM 57.4 °F 47.5 °F 70% 30.17 in 10.0 mi Calm Calm - N/A   Overcast
5:35 AM 57.4 °F 47.3 °F 69% 30.16 in 10.0 mi Calm Calm - N/A   Overcast
5:55 AM 57.4 °F 46.8 °F 68% 30.16 in 10.0 mi Calm Calm - N/A   Overcast
6:15 AM 57.6 °F 46.4 °F 66% 30.16 in 10.0 mi Calm Calm - N/A   Overcast
6:35 AM 57.4 °F 45.9 °F 65% 30.17 in 10.0 mi Calm Calm - N/A   Overcast
6:55 AM 57.4 °F 45.5 °F 65% 30.16 in 10.0 mi Calm Calm - N/A   Overcast
7:15 AM 57.4 °F 45.1 °F 64% 30.17 in 7.0 mi Calm Calm - N/A   Overcast
7:35 AM 58.5 °F 45.0 °F 61% 30.17 in 7.0 mi Calm Calm - N/A   Overcast
7:55 AM 58.5 °F 44.8 °F 60% 30.17 in 7.0 mi Calm Calm - N/A   Overcast
8:15 AM 58.5 °F 43.7 °F 58% 30.17 in 7.0 mi Calm Calm - N/A   Overcast
8:35 AM 59.9 °F 42.4 °F 52% 30.17 in 10.0 mi Calm Calm - N/A   Overcast
8:55 AM 60.8 °F 41.2 °F 48% 30.18 in 10.0 mi Calm Calm - N/A   Overcast
9:15 AM 61.7 °F 39.2 °F 43% 30.19 in 10.0 mi SSE 3.5 mph - N/A   Overcast
9:35 AM 62.4 °F 37.2 °F 39% 30.18 in 10.0 mi SSE 3.5 mph - N/A   Overcast
9:55 AM 63.5 °F 34.0 °F 33% 30.18 in 10.0 mi SSE 4.6 mph - N/A   Overcast
10:15 AM 64.9 °F 28.8 °F 26% 30.17 in 10.0 mi SSE 5.8 mph - N/A   Mostly Cloudy
10:35 AM 66.7 °F 18.1 °F 16% 30.17 in 10.0 mi South 5.8 mph - N/A   Mostly Cloudy
10:55 AM 67.8 °F 11.1 °F 11% 30.17 in 10.0 mi Calm Calm - N/A   Mostly Cloudy
11:15 AM 69.1 °F -14.4 °F 4% 30.16 in 10.0 mi South 6.9 mph - N/A   Mostly Cloudy
11:35 AM - - N/A% 30.14 in 10.0 mi South 5.8 mph - N/A   Mostly Cloudy
11:55 AM - - N/A% 30.13 in 10.0 mi SW 6.9 mph - N/A   Mostly Cloudy
12:15 PM - - N/A% 30.13 in 10.0 mi South 10.4 mph - N/A   Mostly Cloudy
12:35 PM - - N/A% 30.11 in 10.0 mi SSW 6.9 mph - N/A   Mostly Cloudy
12:55 PM - - N/A% 30.10 in 10.0 mi SSW 4.6 mph - N/A   Mostly Cloudy
1:15 PM - - N/A% 30.09 in 10.0 mi SSW 11.5 mph - N/A   Mostly Cloudy
1:35 PM 73.6 °F -17.5 °F 4% 30.07 in 10.0 mi SSW 8.1 mph - N/A   Mostly Cloudy
1:55 PM 73.6 °F 7.3 °F 8% 30.07 in 10.0 mi SSW 5.8 mph - N/A   Mostly Cloudy
2:15 PM 73.8 °F 14.0 °F 10% 30.05 in 10.0 mi SSW 5.8 mph - N/A   Mostly Cloudy
2:35 PM 74.7 °F 10.9 °F 9% 30.04 in 10.0 mi SW 9.2 mph - N/A   Mostly Cloudy
2:55 PM 74.3 °F 24.3 °F 15% 30.03 in 10.0 mi SW 3.5 mph - N/A   Scattered Clouds
3:15 PM 74.8 °F 25.7 °F 16% 30.03 in 10.0 mi SSW 6.9 mph - N/A   Scattered Clouds
3:35 PM 76.3 °F 24.3 °F 14% 30.01 in 10.0 mi SSW 4.6 mph - N/A   Scattered Clouds
3:55 PM 74.5 °F 33.4 °F 22% 30.01 in 10.0 mi SSW 6.9 mph - N/A   Scattered Clouds
4:15 PM 74.8 °F 36.7 °F 25% 30.00 in 10.0 mi SW 4.6 mph - N/A   Scattered Clouds
4:35 PM 73.8 °F 43.3 °F 34% 30.00 in 10.0 mi Calm Calm - N/A   Scattered Clouds
4:55 PM 73.4 °F 47.7 °F 40% 30.00 in 10.0 mi Calm Calm - N/A   Clear
5:15 PM 71.8 °F 50.4 °F 47% 30.00 in 10.0 mi Calm Calm - N/A   Clear
5:35 PM 69.6 °F 53.6 °F 57% 29.99 in 10.0 mi Calm Calm - N/A   Clear
5:55 PM 68.0 °F 54.5 °F 62% 29.99 in 10.0 mi Calm Calm - N/A   Clear
6:15 PM 65.8 °F 55.0 °F 68% 29.99 in 10.0 mi Calm Calm - N/A   Clear
6:35 PM 65.5 °F 54.9 °F 68% 29.99 in 10.0 mi Calm Calm - N/A   Clear
6:55 PM 64.8 °F 54.9 °F 70% 29.99 in 10.0 mi Calm Calm - N/A   Clear
7:15 PM 66.0 °F 54.3 °F 66% 29.98 in 10.0 mi Calm Calm - N/A   Clear
7:35 PM 66.4 °F 54.1 °F 65% 29.99 in 10.0 mi South 3.5 mph - N/A   Clear
7:55 PM 66.4 °F 54.3 °F 65% 29.99 in 10.0 mi Calm Calm - N/A   Clear
8:15 PM 65.3 °F 54.5 °F 68% 29.98 in 10.0 mi Calm Calm - N/A   Clear
8:35 PM 65.5 °F 54.5 °F 68% 29.98 in 10.0 mi South 3.5 mph - N/A   Clear
8:55 PM 64.8 °F 54.5 °F 69% 29.97 in 10.0 mi South 3.5 mph - N/A   Clear
9:15 PM 65.5 °F 53.6 °F 65% 29.97 in 10.0 mi SSW 3.5 mph - N/A   Clear
9:35 PM 65.5 °F 52.9 °F 64% 29.97 in 10.0 mi SW 3.5 mph - N/A   Clear
9:55 PM 65.3 °F 52.7 °F 64% 29.98 in 10.0 mi Calm Calm - N/A   Clear
10:15 PM 63.9 °F 52.5 °F 67% 29.97 in 10.0 mi Calm Calm - N/A   Clear
10:35 PM 63.0 °F 52.0 °F 67% 29.98 in 10.0 mi NW 3.5 mph - N/A   Clear
10:55 PM 63.1 °F 51.8 °F 66% 29.97 in 10.0 mi Calm Calm - N/A   Clear
11:15 PM 63.5 °F 51.8 °F 66% 29.96 in 10.0 mi South 4.6 mph - N/A   Clear
11:35 PM 64.0 °F 51.8 °F 64% 29.95 in 10.0 mi SSW 3.5 mph - N/A   Clear
11:55 PM 64.8 °F 51.8 °F 63% 29.93 in 10.0 mi SSW 4.6 mph - N/A   Clear